星链-34393 (STARLINK-34393)

导读

STARLINK-34393是美国于2025年7月2日发射的星链卫星,隶属于SpaceX公司主导的星链星座项目。星链项目旨在构建覆盖全球的低轨卫星互联网星座,为全球偏远地区、海洋、空域等场景提供高速宽带接入服务。作为星链组网的一员,该卫星进一步扩充了低轨卫星互联网的覆盖容量与服务能力。

Basic Information
目录编号:
64724
目录名称:
STARLINK-34393
国际标识:
2025-144A
轨道中心:
EARTH
卫星名称:
星链-34393
卫星全名:
星链-34393 (STARLINK-34393)
卫星状态:
在轨 (已飞行429 天)
发射日期:
2025-07-02 UTC
国别 :
美国 (US)
星等 :
--
Orbit Information
数据来源 国际轨道数据
星历时间: 2026-09-03T21:00:11+0800
14小时前
查看轨道信息
半长轴: 6840.806km
偏心率: 0.0001242
轨道倾角: 53.159°
近地点辐角 100.341°
升交点赤经 72.683°
平近点角 259.773°
近地点: 461.819km
远地点: 463.519km
周期: 93.847分钟
每日圈数: 15.344118
Detailed Information
固有亮度:
5
最大亮度:
2.5
卫星平台:
Starlink V1.0
覆盖范围:
全球
运营商:
太空探索技术公司
运营商所在国:
美国
制造商(研发单位):
太空探索技术公司
制造商所在国:
美国
使用方式:
暂无
Satellite Introduction
Starlink 计划是 SpaceX 推出的全球卫星互联网项目,通过发射低轨道卫星,为全球尤其是偏远地区提供高速、低延迟的互联网服务。自 2019 年起,Starlink 已部署数千颗卫星,旨在缩小全球数字鸿沟,推动互联网普及。该项目还为军事、航空等行业提供通信支持,带来广泛经济效益。
2D Orbit Map
3D Orbit Map
Orbit Altitude Analysis Chart
Orbit Inclination Analysis Chart
Orbit Comprehensive Analysis Chart
View Comprehensive Chart
Conjunction Data List
Event ID Objects TCA Miss Dist (km) Collision Risk Probability Collision Risk Index (CRI) Action
CDM_260905-002706-472406-602521
2026-09-05T
00:27:23+0000
0.389 km
远距离
2.383977E-4 高风险 0.83
CDM_260904-141706-472406-602521
2026-09-04T
14:17:46+0000
1.239 km
极远距离
7.989656E-6 低风险 0.53
CDM_260904-124606-195406-472421
2026-09-04T
12:46:48+0000
1.242 km
极远距离
5.792182E-6 低风险 0.5
CDM_260904-124306-472406-602521
2026-09-04T
12:43:59+0000
1.478 km
极远距离
4.443988E-6 低风险 0.48
CDM_260904-194806-195406-472421
2026-09-04T
19:48:50+0000
1.395 km
极远距离
3.942875E-6 低风险 0.47
CDM_260904-142006-195406-472421
2026-09-04T
14:20:35+0000
1.614 km
极远距离
2.509652E-6 低风险 0.43
CDM_260904-212206-195406-472421
2026-09-04T
21:22:38+0000
1.792 km
极远距离
1.865691E-6 低风险 0.4
CDM_260904-225306-472406-602521
2026-09-04T
22:53:36+0000
2.916 km
极远距离
9.421865E-7 极低风险 0.34